Location: Ottawa
(45.4170°N, 75.7000°W)
Time: 05:29:22
(UTC-04:00)

Daily predictions for brighter satellites

Satellite Brightness Start Highest point End
(mag) Time Altitude Azimuth Time Altitude Azimuth Time Altitude Azimuth
BREEZE-M DEB (TANK) 3.5 00:02:24 25° SW 00:04:35 73° SSE 00:15:09 10° ENE
Cosmos 1825 4.5 00:06:20 13° E 00:06:22 13° E 00:08:10 10° ENE
Cosmos 1689 Rocket 3.4 00:08:06 33° ENE 00:08:13 33° ENE 00:11:15 10° N
Cosmos 1733 Rocket 3.3 00:09:51 48° SE 00:10:39 57° E 00:15:03 10° NNE
Meteor 2-3 Rocket 3.7 00:08:52 34° SSW 00:11:28 84° W 00:17:12 10° N
COS B Rocket 4.4 00:07:52 10° NNW 00:11:36 39° W 00:13:01 29° SW
Cosmos 2184 Rocket 3.9 00:10:25 34° S 00:13:21 86° W 00:19:35 10° N
Cosmos 2263 Rocket 3.5 00:13:17 23° ESE 00:14:04 24° ESE 00:18:31 10° NE
USA 238 DEB 3.8 00:08:35 10° NW 00:15:31 63° WSW 00:18:30 35° S
USA 238 3.8 00:08:41 10° NW 00:15:38 64° WSW 00:18:37 35° S
Aureole 2 Rocket 3.2 00:12:40 10° NW 00:15:36 38° W 00:15:36 38° W
CZ-4C R/B 2.9 00:08:52 10° NW 00:15:52 79° NE 00:20:27 27° SE
Cosmos 2227 Rocket 4.4 00:11:47 10° W 00:16:15 23° NW 00:20:44 10° N
FALCON 9 R/B 3.7 00:04:45 10° W 00:19:09 33° SW 00:20:47 30° SSW
CZ-4C R/B 2.9 00:20:14 81° SE 00:20:23 87° ENE 00:24:03 10° NNW
Okean 1-7 4.3 00:20:47 10° NNW 00:24:29 29° W 00:25:40 25° WSW
Meteor 1-10 Rocket 4.3 00:19:56 10° N 00:25:55 85° E 00:28:10 41° SSE
Cosmos 1238 Rocket 3.5 00:22:29 10° N 00:25:58 34° ENE 00:26:04 34° E
Sich 1 Rocket 4.0 00:25:49 45° SE 00:26:32 50° E 00:30:55 10° NNE
CZ-2C R/B 3.7 00:25:50 10° NE 00:30:18 28° E 00:31:22 26° ESE
SL-16 R/B 3.8 00:26:23 10° NW 00:30:33 21° W 00:32:32 18° SW
MOS 1-B Rocket 4.4 00:28:24 29° SE 00:30:57 49° ENE 00:36:22 10° N
ALOS 2 2.5 00:34:30 59° S 00:35:18 80° WSW 00:39:43 10° NNW
Coronas F rocket 2.8 00:37:09 37° N 00:37:09 37° N 00:38:57 10° N
Cosmos 2084 Rocket 4.0 00:36:33 28° WSW 00:38:11 47° NW 00:41:54 10° NNE
Cosmos 2227 4.5 00:35:53 27° SW 00:38:59 65° WNW 00:44:40 10° NNE
Cosmos 2341 Rocket 4.2 00:37:40 38° SSE 00:40:05 65° E 00:46:24 10° NNE
SeaSat 1 2.7 00:40:22 46° SSW 00:41:26 56° WSW 00:46:18 10° NW
ASTEX 1 3.4 00:37:22 10° N 00:42:16 78° W 00:43:37 48° SSW
Cosmos 2297 Rocket 4.5 00:38:35 10° W 00:42:48 21° NW 00:47:03 10° N
Cosmos 1356 Rocket 3.3 00:43:11 66° SW 00:43:41 79° WNW 00:47:48 10° N
Cosmos 2251 Rocket 4.3 00:40:01 10° NW 00:44:55 38° WSW 00:46:13 33° SW
NOSS 3-2 (C) 4.0 00:41:44 10° NW 00:49:12 86° NE 00:54:03 27° SE
Cosmos 494 Rocket 4.4 00:44:13 10° NNW 00:49:19 50° WSW 00:50:33 42° SW
Cosmos 921 Rocket 2.9 00:48:52 62° SW 00:49:30 79° WNW 00:53:45 10° NNE
Cosmos 1943 3.1 00:45:39 10° NNW 00:51:22 83° WSW 00:53:11 45° SSE
Cosmos 1782 Rocket 4.2 00:51:04 39° ESE 00:51:36 41° E 00:55:46 10° NNE
Cosmos 1782 3.0 00:50:01 10° NNW 00:53:54 55° W 00:54:10 54° WSW
Cosmos 1674 Rocket 4.0 00:54:04 10° NNW 00:58:21 48° W 00:59:03 44° WSW
Okean 2 Rocket 3.7 00:58:49 40° ESE 00:59:31 43° E 01:03:47 10° NNE
Cosmos 1340 Rocket 3.9 00:59:32 30° W 01:00:21 34° WNW 01:03:58 10° N
Cosmos 1607 4.4 00:55:48 10° NW 01:01:32 43° WSW 01:02:59 37° SSW
BREEZE-M DEB (TANK) 4.3 00:40:24 10° SW 01:03:01 79° SSE 01:08:11 10° ENE
CZ-4B R/B 2.4 01:03:41 37° W 01:03:41 37° W 01:06:30 10° NNW
Cosmos 1606 2.7 01:04:22 10° NNW 01:08:13 65° W 01:08:19 64° WSW
NOSS 3-2 (A) 4.0 01:02:47 10° NW 01:10:10 66° WSW 01:13:47 35° SSE
Cosmos 1408 2.6 01:11:03 73° E 01:11:05 73° E 01:14:51 10° NNE
Cosmos 1975 Rocket 3.0 01:06:45 10° N 01:11:09 75° E 01:11:51 60° SE
Cosmos 1867 3.5 01:06:59 10° NW 01:12:29 75° WSW 01:14:04 47° SSE
NOSS 3-4 (A) 3.5 01:10:42 37° SSW 01:13:27 80° SE 01:20:04 10° NE
NOSS 3-4 (C) 3.5 01:10:49 37° SSW 01:13:32 79° SE 01:20:09 10° NE
Nadezhda 3 Rocket 4.4 01:08:08 10° NNW 01:14:09 52° W 01:16:28 35° SW
Okean 3 3.4 01:12:16 10° N 01:16:36 82° W 01:17:11 66° S
Meteor 1-27 Rocket 3.9 01:12:17 10° NNW 01:18:02 61° W 01:19:48 42° SSW
Cosmos 1908 Rocket 3.8 01:19:27 49° WSW 01:20:13 57° WNW 01:24:32 10° N
Landsat 5 4.4 01:20:20 36° WSW 01:20:54 37° W 01:25:08 10° NNW
CZ-2C R/B 3.3 01:22:43 38° SSE 01:24:59 76° ENE 01:30:31 10° N
H-2A R/B 3.9 01:23:13 10° N 01:27:00 31° WNW 01:28:27 25° WSW
Cosmos 1727 Rocket 4.2 01:24:02 10° N 01:30:15 67° E 01:33:04 34° SSE
Helios 1A Rocket 3.5 01:26:50 10° N 01:30:53 50° WNW 01:31:44 42° WSW
GEOS 3 Rocket 4.1 01:30:20 39° SW 01:30:55 41° WSW 01:35:49 10° NW
RESURS DK-1 2.2 01:31:17 69° SSE 01:31:38 75° ESE 01:35:48 10° NNE
Cosmos 1242 Rocket 2.7 01:34:58 10° N 01:38:27 59° ENE 01:38:35 58° E
BREEZE-M DEB (TANK) 3.5 01:36:59 10° WNW 01:39:49 53° N 01:47:55 10° E
Cosmos 1825 2.7 01:41:16 45° W 01:41:34 46° WNW 01:45:16 10° N
Cosmos 1862 4.1 01:42:05 37° W 01:42:41 39° WNW 01:46:29 10° N
Cosmos 1190 Rocket 4.0 01:39:39 10° NNW 01:44:54 76° ENE 01:47:01 37° SSE
Abrixas rocket 2.5 01:45:32 65° ENE 01:45:32 65° ENE 01:48:29 10° ENE
Cosmos 1844 Rocket 3.7 01:51:26 27° SE 01:53:20 33° ESE 01:58:22 10° NE
Cosmos 407 Rocket 3.5 01:51:26 10° NNW 01:56:38 77° ENE 01:58:56 34° SSE
Cosmos 2263 Rocket 2.6 01:54:57 30° SW 01:57:35 56° WNW 02:03:12 10° NNE
Meteor 1-18 Rocket 4.4 01:52:31 10° N 01:58:13 72° ENE 02:01:00 32° SSE
Cosmos 1371 Rocket 4.1 01:56:39 40° SW 01:58:35 73° WNW 02:03:57 10° NNE
Cosmos 1812 3.6 01:54:54 10° N 01:58:38 42° ENE 01:59:46 33° ESE
Cosmos 2151 Rocket 3.5 01:58:10 53° S 01:59:11 81° E 02:03:42 10° N
Cosmos 2056 Rocket 3.4 01:57:32 44° SSW 01:59:15 87° ESE 02:04:30 10° NNE
CZ-4C R/B 3.9 01:58:12 10° WNW 02:04:02 27° WSW 02:05:36 25° SW
PSLV R/B 4.1 02:02:24 10° NNE 02:06:29 48° E 02:07:33 38° SE
PSLV R/B 4.2 02:07:10 47° WSW 02:07:31 48° W 02:11:28 10° NNW
ATLAS 5 CENTAUR R/B 3.5 02:02:42 10° NNW 02:08:17 43° NE 02:14:16 10° ESE
Gbstr 26 Del rocket 3.3 02:09:14 42° SE 02:09:14 42° SE 02:12:43 10° ENE
Cosmos 676 Rocket 4.1 02:04:17 10° NNW 02:09:30 75° ENE 02:12:12 29° SSE
Meteor 2-19 Rocket 4.4 02:07:43 36° S 02:10:26 89° E 02:16:39 10° N
CZ-2C R/B 3.4 02:05:52 10° N 02:10:42 40° WNW 02:12:53 27° WSW
Iridium 4 Rocket 3.4 02:07:30 10° N 02:12:21 88° E 02:14:18 39° S
SL-27 R/B 2.4 02:16:35 10° NNW 02:20:15 71° WSW 02:20:35 65° SSW
CENTAUR R/B 3.0 02:13:01 10° NW 02:20:49 89° SW 02:29:07 10° SE
USA 234 3.6 02:16:00 10° ESE 02:22:28 69° NNE 02:28:58 10° NW
Cosmos 2278 Rocket 3.5 02:22:42 20° SSE 02:25:28 30° ESE 02:30:22 10° NE
Cosmos 1184 Rocket 4.3 02:27:57 25° W 02:28:14 25° WNW 02:31:05 10° NNW
GP-B 3.6 02:26:45 10° N 02:31:07 53° E 02:33:11 28° SSE
Cosmos 909 Rocket 4.4 02:28:47 26° SW 02:32:42 69° NW 02:40:26 10° NNE
COSMOS 2406 3.5 02:27:19 10° NW 02:32:54 51° WSW 02:35:08 33° SSW
CRYOSAT 2 4.4 02:28:05 10° N 02:32:55 68° W 02:34:44 37° SSW
Cosmos 1821 Rocket 4.3 02:29:34 25° SSE 02:33:24 63° E 02:39:42 10° NNE
Cosmos 1954 Rocket 3.9 02:28:32 10° NNW 02:33:44 87° WSW 02:36:39 27° SSE
Cosmos 2082 Rocket 4.1 02:36:29 10° N 02:41:29 30° NE 02:46:27 10° ESE
Okean 1 3.4 02:41:16 10° NNW 02:45:14 62° W 02:46:19 43° SSW
SL-16 R/B 4.0 02:41:18 10° SE 02:46:49 35° ENE 02:52:21 10° N
Cosmos 1300 Rocket 3.5 02:45:47 39° SSW 02:47:21 76° W 02:51:46 10° N
Landsat 4 3.7 02:48:07 44° SSW 02:49:04 61° WSW 02:52:51 10° NNW
NPP 3.8 02:45:33 10° NNE 02:50:57 71° ESE 02:54:01 26° S
Cosmos 1023 Rocket 4.4 02:47:51 10° NNW 02:52:59 89° WSW 02:56:41 19° SSE
Cosmos 1602 4.1 02:52:37 31° SSE 02:54:14 58° E 02:58:02 10° NNE
Cosmos 1461 3.4 02:57:25 31° S 02:59:28 61° ESE 03:04:02 10° NE
Meteor 2-4 Rocket 4.2 02:55:59 10° N 03:01:18 56° ENE 03:06:32 10° SSE
CZ-2D R/B 4.0 02:57:41 10° NE 03:02:08 25° E 03:06:36 10° SSE
ARIANE 5 R/B 3.9 02:59:02 10° NNE 03:03:30 32° E 03:07:41 11° SSE
Cosmos 1452 Rocket 3.8 03:02:08 27° SW 03:04:53 59° WNW 03:10:07 10° NNE
Cosmos 1892 Rocket 4.1 03:04:04 10° N 03:08:21 55° ENE 03:12:08 13° SSE
ERS-2 2.2 03:05:19 10° NNE 03:09:03 78° ESE 03:10:43 31° S
USA 161 2.7 03:08:36 18° SE 03:10:28 42° ENE 03:13:21 10° N
NOSS 2-2 (D) 3.5 03:08:42 31° SSW 03:10:44 84° SE 03:15:40 10° NE
Cosmos 1420 Rocket 4.0 03:09:02 26° SSW 03:12:08 86° ESE 03:17:27 10° NNE
CBERS-1 4.0 03:09:42 10° NNE 03:14:53 86° WNW 03:18:07 23° SSW
Cosmos 1140 Rocket 3.5 03:10:11 10° NNW 03:15:14 57° WSW 03:18:40 20° S
SL-08 R/B 3.5 03:14:07 24° S 03:16:58 56° W 03:21:46 10° NNW
Cosmos 1833 Rocket 4.0 03:12:05 10° NNW 03:17:24 41° NE 03:22:40 10° SE
IRS-1C 4.1 03:13:41 10° NNE 03:19:04 85° ESE 03:22:45 21° SSW
Cosmos 1315 Rocket 4.2 03:16:08 13° SSE 03:19:21 34° E 03:23:00 10° NNE
Cosmos 1356 3.9 03:19:30 24° S 03:21:28 59° E 03:24:59 10° NNE
Abrixas rocket 3.2 03:19:08 10° WNW 03:22:24 48° N 03:25:41 10° ENE
NOSS 2-2 (C) 3.7 03:22:45 25° SW 03:25:13 74° NW 03:30:13 10° NE
AQUA 3.9 03:21:05 10° N 03:25:50 67° WNW 03:28:48 23° SSW
OPS 6432 4.2 03:25:24 32° SW 03:26:46 83° NW 03:29:54 10° NE
Resurs 1-4 Rocket 3.0 03:27:51 10° NNE 03:32:58 45° E 03:38:00 10° S
Cosmos 1934 Rocket 4.3 03:31:35 20° SSW 03:35:51 54° WNW 03:41:52 10° N
ADEOS 3.6 03:31:11 10° NNE 03:36:26 81° WNW 03:40:24 18° SSW
Okean 1 Rocket 4.4 03:34:20 18° WSW 03:36:37 28° WNW 03:40:29 10° NNW
Cosmos 1844 Rocket 3.5 03:33:05 17° WSW 03:37:07 41° NW 03:42:29 10° NNE
COSMOS 2487 3.5 03:35:23 10° NW 03:38:32 28° WSW 03:39:42 23° SW
Cosmos 1025 Rocket 3.6 03:39:24 10° NNW 03:43:26 40° W 03:46:06 19° SSW
Cosmos 1447 Rocket 4.4 03:37:15 10° N 03:43:27 83° W 03:49:34 10° S
Cosmos 1850 Rocket 4.4 03:38:53 10° NW 03:43:50 43° WSW 03:48:07 13° S
Cosmos 1536 3.3 03:44:16 20° SW 03:46:45 48° WNW 03:50:42 10° N
Cosmos 1633 2.9 03:45:55 21° SW 03:48:02 49° WNW 03:51:37 10° N
Cosmos 1741 Rocket 4.5 03:43:10 10° NW 03:48:05 41° WSW 03:52:25 13° S
NOSS 2-2 (E) 4.5 03:46:34 15° WSW 03:50:00 45° NW 03:55:04 10° NNE
ATLAS 5 CENTAUR R/B 2.7 03:47:26 10° NW 03:53:08 46° WSW 03:59:13 10° S
Okean 2 3.4 03:49:25 10° NNW 03:53:29 61° W 03:57:15 12° S
Cosmos 1626 Rocket 4.0 03:50:11 10° N 03:54:32 62° E 03:58:55 10° SSE
Gbstr 26 Del rocket 3.5 03:52:04 10° W 03:55:54 46° NNW 03:59:31 10° NE
EO 1 Del DPAF 3.2 03:52:34 10° S 03:56:27 80° WSW 04:00:22 10° NNW
Cosmos 1455 Rocket 3.1 03:53:29 14° SSW 03:57:18 79° W 04:01:47 10° N
Spot 4 Rocket 4.2 03:53:41 10° N 03:58:46 60° WNW 04:03:09 14° SSW
Okean O Rocket 3.3 03:55:04 10° NE 03:58:53 29° E 04:02:41 10° SSE
UNK 3.4 03:53:11 13° SW 03:59:51 60° SSE 04:02:42 10° ENE
Timation 2 Rocket 4.2 03:55:35 10° NW 04:01:24 46° WSW 04:07:03 10° S
DNEPR-1 R/B 4.2 03:58:13 10° NW 04:04:05 78° NE 04:08:50 10° SE
USA 234 3.6 03:59:38 10° SSE 04:05:43 41° SW 04:11:50 10° WNW
Cosmos 2278 Rocket 2.8 04:04:33 13° SW 04:09:22 45° WNW 04:14:49 10° NNE
CENTAUR R/B 4.1 04:04:54 10° WNW 04:10:50 23° WSW 04:16:55 10° SSW
Cosmos 2061 Rocket 4.2 04:04:56 10° S 04:11:17 84° E 04:17:44 10° N
Cosmos 2297 3.8 04:07:43 13° SSW 04:12:54 76° WNW 04:18:39 10° NNE
UNK 3.9 04:08:58 10° S 04:13:31 57° W 04:18:07 10° NNW
MTI 3.8 04:11:16 10° S 04:14:33 78° WSW 04:17:52 10° NNW
IRS-1D 3.6 04:12:42 10° N 04:17:43 62° WNW 04:22:36 10° SSW
BREEZE-M TANK 3.7 04:19:21 12° SW 04:19:42 13° SSW 04:21:12 10° S
Cosmos 1400 Rocket 4.1 04:21:17 11° SW 04:24:22 25° WNW 04:27:42 10° NNW
APEX 3.0 04:21:44 12° SW 04:24:28 62° WNW 04:28:11 10° NNE
Cosmos 2082 Rocket 2.4 04:20:19 10° NW 04:25:50 50° WSW 04:31:18 10° S
CZ-4B R/B 4.1 04:21:41 10° NNE 04:27:13 50° E 04:32:41 10° S
Cosmos 2016 Rocket 4.1 04:21:23 10° S 04:27:40 83° E 04:33:55 10° N
SL-16 R/B 2.9 04:24:24 10° S 04:30:19 44° W 04:36:14 10° NNW
Cosmos 1486 Rocket 4.1 04:32:16 10° NNW 04:37:34 64° WSW 04:42:49 10° S
SME Rocket 3.9 04:36:44 10° SSW 04:40:05 30° W 04:44:03 10° NNW
ERBS 3.1 04:36:55 10° NW 04:40:20 57° NE 04:43:44 10° ESE
CZ-2D R/B 2.6 04:37:11 10° N 04:42:27 50° WNW 04:47:42 10° SW
ARIANE 5 R/B 3.4 04:38:08 10° N 04:42:37 34° WNW 04:47:07 10° SW
Cosmos 1515 3.7 04:40:17 10° NNW 04:44:05 65° W 04:47:52 10° S
Cosmos 1725 Rocket 4.3 04:38:13 10° S 04:44:27 75° E 04:50:41 10° NNE
CZ-2D R/B 3.5 04:41:57 10° N 04:45:57 65° WNW 04:49:58 10° SSW
MOZ.5/SAFIR/RUBIN 5/SL-8 3.9 04:41:57 10° SSE 04:46:45 87° WSW 04:51:34 10° NNW
